Location: �perlecques
(50.8057°N, 2.1521°E)
Time: 21:49:54
(UTC+00:00)

COSMOS 2251 DEB - Visible Passes

Search period start: 22 January 2022 00:00
Search period end: 01 February 2022 00:00
Orbit: 595 x 629 km, 74.0° (Epoch: 22 January)

Date Brightness Start Highest point End Pass type
(mag) Time Alt. Az. Time Alt. Az. Time Alt. Az.
22 Jan ? 18:02:35 10° NNW 18:06:47 45° ENE 18:09:53 17° SE visible
22 Jan ? 19:41:46 10° NW 19:45:15 24° W 19:47:01 18° SW visible
23 Jan ? 18:17:43 10° NNW 18:22:05 78° ENE 18:26:26 10° SSE visible
23 Jan ? 19:57:59 10° WNW 20:00:11 14° W 20:02:22 10° SW visible
24 Jan ? 18:32:58 10° NNW 18:37:15 60° WSW 18:41:33 10° S visible
25 Jan ? 17:09:39 10° N 17:13:36 33° NE 17:17:33 10° ESE visible
25 Jan ? 18:48:24 10° NW 18:52:19 34° WSW 18:56:16 10° S visible
26 Jan ? 17:24:39 10° NNW 17:28:56 54° ENE 17:33:13 10° SE visible
26 Jan ? 19:04:08 10° NW 19:07:17 20° W 19:10:26 10° SW visible
27 Jan ? 17:39:46 10° NNW 17:44:09 87° WSW 17:48:32 10° SSE visible
27 Jan ? 19:20:48 10° WNW 19:22:07 11° W 19:23:27 10° WSW visible
28 Jan ? 17:55:02 10° NW 17:59:15 49° WSW 18:03:28 10° S visible
29 Jan ? 06:32:11 10° ESE 06:34:08 13° E 06:36:05 10° ENE visible
29 Jan ? 18:10:30 10° NW 18:14:14 28° WSW 18:17:58 10° SSW visible
30 Jan ? 06:45:36 10° SSE 06:48:57 22° E 06:52:19 10° NE visible
30 Jan ? 18:26:21 10° WNW 18:29:06 16° W 18:31:51 10° SW visible
